Home > Weather > Stockholm > Past weeks

Flag for Sweden Past Weather in Stockholm, Sweden — Yesterday and Last 2 Weeks

Now
66 °F

Passing clouds.


Feels Like: 66 °F
Forecast: 64 / 79 °F
Wind: 3 mph from East

Location: Stockholm Bromma Airport

Current Time: Jun 24, 2016 at 10:31:25 PM

Latest Report: Jun 24, 2016 at 9:50 PM


Visibility: N/A

Pressure: 29.98 "Hg

Humidity: 88%

Dew Point: 63 °F

Location of StockholmLocation

Past Weather in Stockholm — Graph

°F

Stockholm Temperature Yesterday

Maximum temperature yesterday: 73 °F (at 12:20 PM)
Minimum temperature yesterday: 61 °F (at 2:50 AM)
Average temperature yesterday: 68 °F

High & Low Weather Summary for the Past Weeks

 TemperatureHumidityPressure
High75 °F (Jun 22, 3:20 PM)100% (Jun 13, 2:50 AM)30.18 "Hg (Jun 13, 2:50 AM)
Low41 °F (Jun 11, 1:20 AM)25% (Jun 13, 1:20 PM)29.30 "Hg (Jun 18, 3:50 AM)
Average59 °F69%29.82 "Hg
* Reported Jun 9 9:20 PM — Jun 24 9:20 PM, Stockholm, Weather by CustomWeather, © 2016

Note: Actual official high and low records may vary slightly from our data, if they occured in-between our weather recording intervals... More about our weather records

Advertising

Stockholm Weather History for the Previous 24 Hours

Scroll right to see more
 ConditionsComfort  
Time TempWeatherWind HumidityBarometerVisibility
9:20 PM
Fri, Jun 24
66 °FMostly cloudy.1 mph88%29.98 "HgN/A
8:50 PM68 °FMostly cloudy.1 mph83%29.98 "HgN/A
8:20 PM68 °FOvercast.3 mph83%29.98 "HgN/A
7:50 PM68 °FPartly sunny.1 mph78%29.98 "HgN/A
7:20 PM68 °FOvercast.No wind78%29.98 "HgN/A
6:50 PM68 °FOvercast.2 mph78%29.98 "HgN/A
6:20 PM66 °FMore clouds than sun.3 mph83%29.98 "HgN/A
5:50 PM68 °FBroken clouds.5 mph78%29.98 "HgN/A
5:20 PM66 °FOvercast.3 mph83%30.01 "HgN/A
4:50 PM64 °FOvercast.2 mph83%30.01 "HgN/A
4:20 PM64 °FLow clouds.3 mph88%30.01 "HgN/A
3:50 PM64 °FPartly sunny.3 mph83%30.01 "HgN/A
3:20 PM63 °FPartly sunny.2 mph88%30.01 "HgN/A
2:50 PM64 °FPartly sunny.2 mph83%30.01 "HgN/A
2:20 PM63 °FPartly sunny.3 mph88%30.01 "HgN/A
1:50 PM63 °FPartly sunny.5 mph88%30.01 "HgN/A
1:20 PM63 °FPartly sunny.5 mph88%30.01 "HgN/A
12:50 PM63 °FPartly sunny.6 mph88%30.01 "HgN/A
12:20 PM63 °FPartly sunny.5 mph88%30.01 "HgN/A
11:50 AM63 °FPartly sunny.6 mph88%30.01 "HgN/A
11:20 AM61 °FPartly sunny.5 mph94%30.01 "HgN/A
10:50 AM61 °FPartly sunny.6 mph94%30.01 "HgN/A
10:20 AM61 °FPartly sunny.7 mph94%30.01 "HgN/A
9:50 AM61 °FPartly sunny.7 mph94%30.04 "HgN/A
9:20 AM61 °FPartly sunny.8 mph94%30.04 "HgN/A
8:50 AM61 °FFog.7 mph94%30.04 "Hg4 mi
8:20 AM61 °FFog.10 mph94%30.04 "Hg3 mi
7:50 AM61 °FDrizzle. Partly sunny.13 mph94%30.04 "Hg3 mi
7:20 AM61 °FDrizzle. Partly sunny.8 mph100%30.07 "Hg3 mi
6:50 AM61 °FLight rain. Partly sunny.8 mph100%30.07 "Hg4 mi
6:20 AM63 °FLight rain. Partly sunny.8 mph94%30.04 "HgN/A
5:50 AM61 °FPartly sunny.8 mph100%30.04 "HgN/A
5:20 AM61 °FLight rain. Mostly cloudy.7 mph94%30.07 "HgN/A
4:50 AM61 °FDrizzle. Partly sunny.6 mph94%30.07 "HgN/A
4:20 AM61 °FDrizzle. Overcast.5 mph100%30.09 "Hg6 mi
3:50 AM61 °FLight rain. Overcast.6 mph100%30.09 "HgN/A
3:20 AM61 °FRain. Mostly cloudy.6 mph94%30.12 "Hg4 mi
2:50 AM61 °FRain. Overcast.3 mph94%30.12 "Hg3 mi
2:20 AM61 °FLight rain. Passing clouds.3 mph100%30.12 "HgN/A
1:50 AM61 °FLight rain. Passing clouds.3 mph94%30.12 "HgN/A
1:20 AM63 °FRain. Passing clouds.2 mph88%30.12 "Hg5 mi
12:50 AM63 °FDrizzle. Overcast.3 mph83%30.12 "HgN/A
12:20 AM64 °FLight rain. Passing clouds.2 mph78%30.12 "HgN/A
11:50 PM
Thu, Jun 23
64 °FLight rain. Passing clouds.5 mph78%30.12 "HgN/A
11:20 PM64 °FLight rain. Overcast.5 mph78%30.12 "HgN/A
10:50 PM66 °FPartly sunny.5 mph68%30.12 "HgN/A
10:20 PM66 °FPartly sunny.6 mph68%30.12 "HgN/A
Weather by CustomWeather, © 2016

See weather overviewHow to use our weather pages